Location: Tamazert
(32.6352°N, 5.2072°W)
Time: 04:31:41
(UTC+00:00)

ALOS - Pass Details

Date: 22 May 2022
Orbit: 682 x 683 km, 97.9° (Epoch: 24 June)

Event Time Altitude Azimuth Distance (km) Brightness Sun altitude
Rises 03:22:33 0° 19° (NNE) 3,047 6.7 -21.0°
Reaches altitude 10° 03:24:53 10° 26° (NNE) 2,128 5.8 -20.6°
Maximum altitude 03:29:21 46° 99° (E) 917 3.1 -19.9°
Enters shadow 03:32:40 17° 167° (SSE) 1,695 4.0 -19.4°
